Weather History for Tacoma, WA

Change the Weather History Date:

Thursday, October 3, 2013

  Actual Average Record
Temperature  
Mean Temperature 48 °F -  
Max Temperature 56 °F 63 °F 79 °F (1993)
Min Temperature 38 °F 43 °F 34 °F (1964)
Degree Days  
Heating Degree Days 18    
Moisture  
Dew Point 45 °F    
Average Humidity 95    
Maximum Humidity 100    
Minimum Humidity 64    
Precipitation  
Precipitation 0.03 in - - ()
Sea Level Pressure  
Sea Level Pressure 30.36 in    
Wind  
Wind Speed 2 mph (SW)    
Max Wind Speed 7 mph    
Max Gust Speed -    
Visibility 7 miles    
Events Fog , Rain    
Averages and records for this station are not official NWS values.
T = Trace of Precipitation, MM = Missing Value Source: NWS Daily Summary

Daily Weather History Graph

Daily Weather History Graph

Search for Another Location

Airport:

Trip Planner

Search our weather history database for the weather conditions in past years. The results will help you decide how hot, cold, wet, or windy it might be!

Date:

Astronomy

Oct. 03, 2013 Rise Set
Actual Time 7:11 AM PDT 6:44 PM PDT
Civil Twilight 6:41 AM PDT 7:15 PM PDT
Nautical Twilight 6:06 AM PDT 7:50 PM PDT
Astronomical Twilight 5:30 AM PDT 8:26 PM PDT
Moon 5:47 AM PDT (10/3) 5:57 PM PDT (10/3)
Length of Visible Light 12h 33m
Length of Day
11h 32m
Waning Crescent, 2% of the Moon is Illuminated
Oct 3
Waning Crescent
Oct 4
New
Oct 11
First Quarter
Oct 18
Full
Oct 26
Last Quarter

Hourly Weather History & Observations

Time (PDT) Temp. Windchill Dew Point Humidity Pressure Visibility Wind Dir Wind Speed Gust Speed Precip Events Conditions
12:03 AM 46.4 °F - 46.4 °F 100% 30.19 in 10.0 mi South 2.3 mph - N/A   Overcast
12:08 AM 46.4 °F - 46.4 °F 100% 30.19 in 10.0 mi South 2.3 mph - N/A   Overcast
12:58 AM 46.6 °F - 46.4 °F 99% 30.22 in 10.0 mi SSW 1.2 mph - N/A   Overcast
1:54 AM 46.4 °F - 46.4 °F 100% 30.22 in 10.0 mi South 2.3 mph - N/A Rain Light Rain
1:58 AM 46.4 °F - 46.2 °F 99% 30.24 in 9.0 mi South 2.3 mph - 0.00 in Rain Light Rain
2:38 AM 46.4 °F - 46.4 °F 100% 30.24 in 10.0 mi South 2.3 mph - N/A Rain Light Rain
2:41 AM 46.4 °F 45.2 °F 46.4 °F 100% 30.24 in 10.0 mi South 3.5 mph - N/A   Overcast
2:55 AM 46.4 °F 45.2 °F 46.4 °F 100% 30.24 in 10.0 mi SSW 3.5 mph - N/A   Light Drizzle
2:58 AM 46.6 °F - 46.2 °F 99% 30.27 in 10.0 mi SW 3.5 mph - 0.02 in   Light Drizzle
3:08 AM 46.4 °F - 46.4 °F 100% 30.25 in 10.0 mi South 2.3 mph - N/A Rain Light Rain
3:14 AM 46.4 °F - 46.4 °F 100% 30.25 in 10.0 mi SSE 2.3 mph - N/A   Overcast
3:17 AM 46.4 °F - 46.4 °F 100% 30.25 in 10.0 mi SSE 1.2 mph - N/A   Overcast
3:22 AM 46.4 °F - 46.4 °F 100% 30.25 in 10.0 mi SE 1.2 mph - N/A   Overcast
3:26 AM 46.4 °F - 46.4 °F 100% 30.25 in 10.0 mi Calm Calm - N/A   Overcast
3:29 AM 46.4 °F - 46.4 °F 100% 30.25 in 9.0 mi SE 1.2 mph - N/A Rain Light Rain
3:34 AM 46.4 °F - 46.4 °F 100% 30.26 in 8.0 mi South 2.3 mph - N/A Rain Light Rain
3:44 AM 46.4 °F - 46.4 °F 100% 30.26 in 10.0 mi South 2.3 mph - N/A Rain Light Rain
3:51 AM 46.4 °F - 46.4 °F 100% 30.26 in 10.0 mi SSE 2.3 mph - N/A   Overcast
3:58 AM 46.6 °F - 46.2 °F 99% 30.28 in 10.0 mi SE 2.3 mph - 0.01 in   Overcast
4:03 AM 46.4 °F - 46.4 °F 100% 30.26 in 10.0 mi SE 2.3 mph - N/A   Overcast
4:08 AM 46.4 °F - 46.4 °F 100% 30.26 in 10.0 mi ESE 2.3 mph - N/A   Overcast
4:23 AM 46.4 °F - 46.4 °F 100% 30.27 in 10.0 mi SE 2.3 mph - N/A   Overcast
4:28 AM 46.4 °F - 46.4 °F 100% 30.27 in 10.0 mi ESE 1.2 mph - N/A   Overcast
4:31 AM 46.4 °F - 46.4 °F 100% 30.27 in 10.0 mi East 1.2 mph - N/A   Overcast
4:46 AM 46.4 °F - 46.4 °F 100% 30.28 in 10.0 mi Calm Calm - N/A   Overcast
4:51 AM 46.4 °F - 46.4 °F 100% 30.28 in 10.0 mi SW 1.2 mph - N/A   Overcast
4:58 AM 46.8 °F - 46.6 °F 99% 30.30 in 10.0 mi South 1.2 mph - N/A   Overcast
5:18 AM 46.4 °F 45.2 °F 46.4 °F 100% 30.29 in 10.0 mi WSW 3.5 mph - N/A   Overcast
5:58 AM 47.7 °F - 47.3 °F 99% 30.32 in 10.0 mi West 3.5 mph - N/A   Overcast
6:28 AM 48.2 °F - 48.2 °F 100% 30.31 in 10.0 mi WNW 3.5 mph - N/A   Overcast
6:36 AM 48.2 °F - 48.2 °F 100% 30.31 in 10.0 mi WNW 4.6 mph - N/A   Light Drizzle
6:46 AM 48.2 °F - 48.2 °F 100% 30.32 in 9.0 mi NW 4.6 mph - N/A Rain Light Rain
6:58 AM 47.8 °F - 47.7 °F 99% 30.34 in 10.0 mi WNW 5.8 mph - 0.00 in   Light Drizzle
7:01 AM 48.2 °F - 48.2 °F 100% 30.32 in 10.0 mi WNW 3.5 mph - N/A   Overcast
7:16 AM 48.2 °F - 48.2 °F 100% 30.32 in 10.0 mi NNW 3.5 mph - N/A   Light Drizzle
7:32 AM 48.2 °F - 48.2 °F 100% 30.33 in 10.0 mi NNW 2.3 mph - N/A   Overcast
7:40 AM 48.2 °F - 48.2 °F 100% 30.33 in 10.0 mi NNW 2.3 mph - N/A   Overcast
7:45 AM 48.2 °F - 48.2 °F 100% 30.33 in 10.0 mi Calm Calm - N/A   Overcast
7:50 AM 48.2 °F - 48.2 °F 100% 30.33 in 10.0 mi NNW 2.3 mph - N/A   Overcast
7:55 AM 48.2 °F - 48.2 °F 100% 30.33 in 10.0 mi Calm Calm - N/A   Overcast
7:58 AM 48.0 °F - 47.8 °F 99% 30.35 in 10.0 mi NNW 1.2 mph - 0.00 in   Overcast
8:23 AM 48.2 °F - 48.2 °F 100% 30.34 in 10.0 mi NW 2.3 mph - N/A   Overcast
8:33 AM 48.2 °F - 48.2 °F 100% 30.35 in 10.0 mi WNW 2.3 mph - N/A   Overcast
8:58 AM 48.9 °F - 48.6 °F 99% 30.37 in 10.0 mi West 2.3 mph - N/A   Overcast
9:43 AM 50.0 °F - 48.2 °F 94% 30.37 in 10.0 mi WNW 1.2 mph - N/A   Overcast
9:58 AM 49.8 °F - 49.1 °F 97% 30.40 in 10.0 mi NW 3.5 mph - N/A   Overcast
10:18 AM 50.0 °F - 50.0 °F 100% 30.38 in 10.0 mi NW 2.3 mph - N/A   Overcast
10:43 AM 51.8 °F - 48.2 °F 88% 30.39 in 10.0 mi Calm Calm - N/A   Overcast
10:53 AM 51.8 °F - 48.2 °F 88% 30.39 in 10.0 mi WNW 5.8 mph - N/A   Overcast
10:58 AM 51.3 °F - 48.6 °F 90% 30.41 in 10.0 mi West 6.9 mph - N/A   Overcast
11:13 AM 50.0 °F - 48.2 °F 94% 30.39 in 10.0 mi WNW 6.9 mph - N/A   Overcast
11:43 AM 51.8 °F - 48.2 °F 88% 30.40 in 10.0 mi West 6.9 mph - N/A   Overcast
11:53 AM 51.8 °F - 48.2 °F 88% 30.40 in 10.0 mi West 4.6 mph - N/A   Overcast
11:58 AM 51.6 °F - 48.7 °F 90% 30.42 in 10.0 mi WNW 2.3 mph - N/A   Overcast
12:18 PM 51.8 °F - 48.2 °F 88% 30.40 in 10.0 mi West 3.5 mph - N/A   Overcast
12:48 PM 53.6 °F - 46.4 °F 77% 30.41 in 7.0 mi NNE 4.6 mph - N/A   Overcast
12:58 PM 53.2 °F - 45.9 °F 76% 30.43 in 4.0 mi NNE 3.5 mph - N/A   Haze
1:48 PM 53.6 °F - 46.4 °F 77% 30.42 in 5.0 mi North 1.2 mph - N/A   Haze
1:58 PM 54.1 °F - 47.1 °F 77% 30.44 in 7.0 mi North 3.5 mph - N/A   Overcast
2:23 PM 53.6 °F - 46.4 °F 77% 30.42 in 9.0 mi NNE 3.5 mph - N/A   Overcast
2:58 PM 54.7 °F - 45.0 °F 70% 30.44 in 6.0 mi NNE 2.3 mph - N/A   Haze
3:58 PM 55.6 °F - 45.0 °F 67% 30.44 in 9.0 mi NE 2.3 mph - N/A   Overcast
4:58 PM 56.3 °F - 44.2 °F 64% 30.44 in 4.0 mi ENE 3.5 mph - N/A   Haze
5:58 PM 54.3 °F - 45.3 °F 72% 30.45 in 8.0 mi NE 2.3 mph - N/A   Overcast
6:58 PM 52.9 °F - 46.0 °F 78% 30.45 in 10.0 mi Calm Calm - N/A   Partly Cloudy
7:58 PM 45.5 °F - 44.8 °F 97% 30.46 in 10.0 mi Calm Calm - N/A   Clear
9:28 PM 42.8 °F - 42.8 °F 100% 30.44 in 0.8 mi ESE 2.3 mph - N/A   Clear
9:33 PM 41.0 °F - 41.0 °F 100% 30.44 in 1.0 mi Calm Calm - N/A   Clear
9:38 PM 42.8 °F - 42.8 °F 100% 30.44 in 1.2 mi Calm Calm - N/A   Clear
9:48 PM 42.8 °F - 42.8 °F 100% 30.44 in 1.0 mi ESE 1.2 mph - N/A   Clear
9:58 PM 43.0 °F - 42.6 °F 99% 30.47 in 0.8 mi Calm Calm - N/A   Clear
10:03 PM 41.0 °F - 41.0 °F 100% 30.45 in 0.5 mi Calm Calm - N/A Fog Fog
10:08 PM 42.8 °F - 42.8 °F 100% 30.45 in 1.0 mi Calm Calm - N/A   Clear
10:13 PM 41.0 °F - 41.0 °F 100% 30.45 in 1.0 mi Calm Calm - N/A   Clear
10:18 PM 41.0 °F - 41.0 °F 100% 30.45 in 0.2 mi Calm Calm - N/A Fog Fog
10:23 PM 41.0 °F - 41.0 °F 100% 30.45 in 0.2 mi Calm Calm - N/A Fog Fog
10:33 PM 41.0 °F - 41.0 °F 100% 30.45 in 0.2 mi Calm Calm - N/A Fog Fog
10:58 PM 39.2 °F - 39.2 °F 100% 30.47 in 0.2 mi ESE 1.2 mph - N/A Fog Fog
11:03 PM 41.0 °F - 39.2 °F 93% 30.45 in 0.2 mi Calm Calm - N/A Fog Fog
11:08 PM 39.2 °F - 39.2 °F 100% 30.45 in 0.2 mi Calm Calm - N/A Fog Fog
11:18 PM 39.2 °F - 39.2 °F 100% 30.45 in 0.2 mi Calm Calm - N/A Fog Fog
11:23 PM 39.2 °F - 39.2 °F 100% 30.45 in 0.2 mi Calm Calm - N/A Fog Fog
11:28 PM 39.2 °F - 39.2 °F 100% 30.45 in 0.5 mi Calm Calm - N/A Fog Fog
11:43 PM 41.0 °F - 39.2 °F 93% 30.45 in 0.2 mi Calm Calm - N/A Fog Fog
11:48 PM 39.2 °F - 39.2 °F 100% 30.45 in 0.2 mi Calm Calm - N/A Fog Fog
11:53 PM 39.2 °F - 37.4 °F 93% 30.46 in 0.2 mi Calm Calm - N/A Fog Fog
11:58 PM 38.7 °F - 38.5 °F 99% 30.48 in 0.2 mi SE 1.2 mph - N/A Fog Fog